TimeEST,TemperatureF,Dew PointF,Humidity,Sea Level PressureIn,VisibilityMPH,Wind Direction,Wind SpeedMPH,Gust SpeedMPH,PrecipitationIn,Events,Conditions,WindDirDegrees,DateUTC
12:53 AM,30.0,9.0,41,30.04,10.0,NW,11.5,19.6,N/A,,Clear,310,2013-01-21 05:53:00
1:53 AM,28.9,6.1,38,30.06,10.0,WNW,10.4,-,N/A,,Clear,300,2013-01-21 06:53:00
2:53 AM,27.0,7.0,43,30.08,10.0,WNW,9.2,-,N/A,,Clear,290,2013-01-21 07:53:00
4:53 AM,26.1,6.1,43,30.09,10.0,WNW,8.1,-,N/A,,Clear,300,2013-01-21 09:53:00
5:53 AM,27.0,6.1,41,30.09,10.0,NW,8.1,-,N/A,,Clear,320,2013-01-21 10:53:00
7:53 AM,21.9,10.0,60,30.12,10.0,Calm,Calm,-,N/A,,Clear,0,2013-01-21 12:53:00
8:53 AM,27.0,9.0,47,30.12,10.0,Calm,Calm,-,N/A,,Clear,0,2013-01-21 13:53:00
9:53 AM,30.0,8.1,40,30.13,10.0,West,3.5,-,N/A,,Overcast,270,2013-01-21 14:53:00
10:53 AM,30.9,8.1,38,30.10,10.0,Calm,Calm,-,N/A,,Overcast,0,2013-01-21 15:53:00
11:53 AM,30.9,9.0,40,30.06,10.0,South,4.6,-,N/A,,Overcast,180,2013-01-21 16:53:00
12:53 PM,30.9,10.0,42,30.02,10.0,SSE,4.6,-,N/A,,Overcast,160,2013-01-21 17:53:00
1:53 PM,30.9,14.0,50,30.00,10.0,South,6.9,-,N/A,,Overcast,190,2013-01-21 18:53:00
2:42 PM,30.2,21.2,69,29.98,2.5,SSW,6.9,-,0.00,Snow,Light Snow,200,2013-01-21 19:42:00
2:53 PM,30.9,21.9,69,29.98,3.0,SSW,9.2,-,0.00,Snow,Light Snow,200,2013-01-21 19:53:00
3:27 PM,30.2,24.8,80,29.96,6.0,SSW,5.8,-,0.00,Snow,Light Snow,210,2013-01-21 20:27:00
3:35 PM,30.2,24.8,80,29.96,1.5,SSW,5.8,-,0.00,Snow,Light Snow,200,2013-01-21 20:35:00
3:44 PM,30.2,24.8,80,29.95,1.5,Variable,5.8,-,0.00,Snow,Light Snow,0,2013-01-21 20:44:00
3:53 PM,30.0,25.0,82,29.94,1.5,SSW,5.8,-,0.00,Snow,Light Snow,200,2013-01-21 20:53:00
4:12 PM,30.2,26.6,86,29.93,0.8,SSW,8.1,-,0.00,Snow,Light Snow,200,2013-01-21 21:12:00
4:19 PM,30.2,26.6,86,29.93,1.0,SSW,5.8,-,0.01,Snow,Light Snow,210,2013-01-21 21:19:00
4:28 PM,30.2,26.6,86,29.93,0.8,SSW,5.8,-,0.01,Snow,Light Snow,210,2013-01-21 21:28:00
4:53 PM,30.0,27.0,88,29.93,1.0,SW,5.8,-,0.03,Snow,Light Snow,220,2013-01-21 21:53:00
5:16 PM,30.2,26.6,86,29.92,2.0,SW,6.9,-,0.01,Snow,Light Snow,230,2013-01-21 22:16:00
5:53 PM,30.0,27.0,88,29.92,1.8,West,3.5,-,0.02,Snow,Light Snow,260,2013-01-21 22:53:00
6:06 PM,30.2,26.6,86,29.92,2.0,West,3.5,-,0.00,Snow,Light Snow,280,2013-01-21 23:06:00
6:23 PM,28.4,26.6,93,29.91,4.0,West,4.6,-,0.00,Snow,Light Snow,270,2013-01-21 23:23:00
6:37 PM,28.4,26.6,93,29.91,5.0,WNW,3.5,-,0.00,Snow,Light Snow,300,2013-01-21 23:37:00
6:53 PM,28.9,26.1,89,29.91,7.0,NW,5.8,-,0.00,Snow,Light Snow,320,2013-01-21 23:53:00
7:53 PM,28.9,26.1,89,29.86,10.0,North,5.8,-,0.00,,Overcast,350,2013-01-22 00:53:00
8:46 PM,28.4,24.8,86,29.86,1.8,NNW,17.3,-,0.00,Snow,Light Snow,330,2013-01-22 01:46:00
8:53 PM,28.9,25.0,85,29.87,1.2,NNW,11.5,-,0.00,Snow,Light Snow,340,2013-01-22 01:53:00
9:02 PM,28.4,24.8,86,29.87,0.8,NNW,10.4,-,0.01,Snow,Light Snow,330,2013-01-22 02:02:00
9:26 PM,28.4,24.8,86,29.86,0.5,NNW,10.4,-,0.04,Fog-Snow,Snow,330,2013-01-22 02:26:00
9:44 PM,28.4,24.8,86,29.85,1.2,NNW,8.1,-,0.06,Snow,Light Snow,330,2013-01-22 02:44:00
9:53 PM,28.9,26.1,89,29.87,1.0,NW,8.1,-,0.06,Snow,Light Snow,320,2013-01-22 02:53:00
10:03 PM,28.4,26.6,93,29.86,0.8,NNW,8.1,-,0.01,Snow,Light Snow,330,2013-01-22 03:03:00
10:16 PM,28.4,26.6,93,29.84,1.2,North,8.1,-,0.02,Snow,Light Snow,350,2013-01-22 03:16:00
10:21 PM,28.4,24.8,86,29.85,3.0,NNW,6.9,-,0.02,Snow,Light Snow,330,2013-01-22 03:21:00
10:31 PM,28.4,24.8,86,29.85,8.0,NNW,5.8,-,0.02,,Overcast,330,2013-01-22 03:31:00
10:53 PM,28.0,26.1,92,29.85,4.0,NW,3.5,-,0.02,Snow,Light Snow,310,2013-01-22 03:53:00
11:01 PM,28.4,26.6,93,29.84,3.0,NW,5.8,-,0.00,Snow,Light Snow,320,2013-01-22 04:01:00
11:17 PM,28.4,24.8,86,29.83,2.0,Calm,Calm,-,0.00,Snow,Light Snow,0,2013-01-22 04:17:00
11:33 PM,28.4,24.8,86,29.83,4.0,NW,4.6,-,0.00,Snow,Light Snow,310,2013-01-22 04:33:00
11:53 PM,28.0,24.1,85,29.82,4.0,WNW,9.2,-,0.00,Snow,Light Snow,300,2013-01-22 04:53:00